Time,TemperatureF,DewpointF,PressureIn,WindDirection,WindDirectionDegrees,WindSpeedMPH,WindSpeedGustMPH,Humidity,HourlyPrecipIn,Conditions,Clouds,dailyrainin,SolarRadiationWatts/m^2,SoftwareType,DateUTC
2013-04-19 00:01:00,77.9,72.0,30.07,East,92,0.0,12.0,82,0.00,,,0.44,0.0,meteohub,2013-04-19 04:01:00,
2013-04-19 00:02:00,77.9,72.0,30.07,East,88,5.0,12.0,82,0.00,,,0.44,0.0,meteohub,2013-04-19 04:02:00,
2013-04-19 00:03:00,77.9,72.0,30.07,East,88,3.0,12.0,82,0.00,,,0.44,0.0,meteohub,2013-04-19 04:03:00,
2013-04-19 00:08:00,77.7,71.8,30.07,ENE,73,3.0,12.0,82,0.00,,,0.00,0.0,meteohub,2013-04-19 04:08:00,
2013-04-19 00:13:00,77.9,72.0,30.07,East,96,7.0,16.0,82,0.00,,,0.00,0.0,meteohub,2013-04-19 04:13:00,
2013-04-19 00:18:00,77.9,72.0,30.07,ENE,69,0.0,16.0,82,0.00,,,0.00,0.0,meteohub,2013-04-19 04:18:00,
2013-04-19 00:23:00,77.9,72.0,30.07,ENE,73,0.0,16.0,82,0.00,,,0.00,0.0,meteohub,2013-04-19 04:23:00,
2013-04-19 00:28:00,77.9,72.0,30.07,East,82,6.0,17.0,82,0.00,,,0.00,0.0,meteohub,2013-04-19 04:28:00,
2013-04-19 00:33:00,77.9,72.0,30.07,East,92,8.0,17.0,82,0.00,,,0.00,0.0,meteohub,2013-04-19 04:33:00,
2013-04-19 00:38:00,77.9,72.0,30.07,East,83,6.0,17.0,82,0.00,,,0.00,0.0,meteohub,2013-04-19 04:38:00,
2013-04-19 00:43:00,77.9,72.3,30.06,East,88,6.0,16.0,83,0.00,,,0.00,0.0,meteohub,2013-04-19 04:43:00,
2013-04-19 00:48:00,77.9,72.0,30.06,NE,42,2.0,16.0,82,0.00,,,0.00,0.0,meteohub,2013-04-19 04:48:00,
2013-04-19 00:53:00,77.7,71.8,30.06,ENE,75,5.0,14.0,82,0.00,,,0.00,0.0,meteohub,2013-04-19 04:53:00,
2013-04-19 00:58:00,77.7,71.8,30.06,East,97,0.0,14.0,82,0.00,,,0.00,0.0,meteohub,2013-04-19 04:58:00,
2013-04-19 01:03:00,77.7,71.8,30.06,East,85,6.0,14.0,82,0.00,,,0.00,0.0,meteohub,2013-04-19 05:03:00,
2013-04-19 01:08:00,77.7,71.8,30.06,NE,35,0.0,14.0,82,0.00,,,0.00,0.0,meteohub,2013-04-19 05:08:00,
2013-04-19 01:13:00,77.7,71.8,30.06,East,83,0.0,14.0,82,0.00,,,0.00,0.0,meteohub,2013-04-19 05:13:00,
2013-04-19 01:18:00,77.7,71.8,30.06,East,89,6.0,10.0,82,0.00,,,0.00,0.0,meteohub,2013-04-19 05:18:00,
2013-04-19 01:24:00,77.7,71.8,30.06,East,86,7.0,9.0,82,0.00,,,0.00,0.0,meteohub,2013-04-19 05:24:00,
2013-04-19 01:29:00,77.7,71.8,30.05,East,99,3.0,10.0,82,0.00,,,0.00,0.0,meteohub,2013-04-19 05:29:00,
2013-04-19 01:34:00,77.7,71.8,30.05,ESE,106,14.0,14.0,82,0.00,,,0.00,0.0,meteohub,2013-04-19 05:34:00,
2013-04-19 01:39:00,77.7,71.8,30.05,NE,55,6.0,14.0,82,0.00,,,0.00,0.0,meteohub,2013-04-19 05:39:00,
2013-04-19 01:44:00,77.7,71.8,30.05,East,79,7.0,14.0,82,0.00,,,0.00,0.0,meteohub,2013-04-19 05:44:00,
2013-04-19 01:49:00,77.9,72.0,30.05,East,93,10.0,14.0,82,0.00,,,0.00,0.0,meteohub,2013-04-19 05:49:00,
2013-04-19 01:54:00,77.7,71.8,30.05,East,89,7.0,18.0,82,0.00,,,0.00,0.0,meteohub,2013-04-19 05:54:00,
2013-04-19 02:00:00,77.7,71.8,30.04,ENE,72,5.0,18.0,82,0.00,,,0.00,0.0,meteohub,2013-04-19 06:00:00,
2013-04-19 02:04:00,77.7,71.4,30.04,East,85,2.0,18.0,81,0.00,,,0.00,0.0,meteohub,2013-04-19 06:04:00,
2013-04-19 02:09:00,77.7,71.4,30.04,East,97,10.0,18.0,81,0.00,,,0.00,0.0,meteohub,2013-04-19 06:09:00,
2013-04-19 02:15:00,77.7,71.4,30.04,ENE,76,7.0,18.0,81,0.00,,,0.00,0.0,meteohub,2013-04-19 06:15:00,
2013-04-19 02:20:00,77.9,72.0,30.04,ENE,65,6.0,14.0,82,0.00,,,0.00,0.0,meteohub,2013-04-19 06:20:00,
2013-04-19 02:25:00,77.7,71.8,30.04,ESE,103,7.0,14.0,82,0.00,,,0.00,0.0,meteohub,2013-04-19 06:25:00,
2013-04-19 02:30:00,77.7,71.8,30.04,ENE,76,8.0,14.0,82,0.00,,,0.00,0.0,meteohub,2013-04-19 06:30:00,
2013-04-19 02:35:00,77.5,71.6,30.04,East,93,6.0,13.0,82,0.00,,,0.00,0.0,meteohub,2013-04-19 06:35:00,
2013-04-19 02:40:00,77.5,71.6,30.04,East,96,12.0,14.0,82,0.00,,,0.00,0.0,meteohub,2013-04-19 06:40:00,
2013-04-19 02:45:00,77.5,71.6,30.03,ENE,62,7.0,14.0,82,0.00,,,0.00,0.0,meteohub,2013-04-19 06:45:00,
2013-04-19 02:50:00,77.5,71.6,30.03,East,86,7.0,14.0,82,0.00,,,0.00,0.0,meteohub,2013-04-19 06:50:00,
2013-04-19 02:55:00,77.5,71.6,30.03,East,83,13.0,14.0,82,0.00,,,0.00,0.0,meteohub,2013-04-19 06:55:00,
2013-04-19 03:00:00,77.5,71.6,30.03,East,83,13.0,14.0,82,0.00,,,0.00,0.0,meteohub,2013-04-19 07:00:00,
2013-04-19 03:05:00,77.5,71.2,30.03,East,95,8.0,17.0,81,0.00,,,0.00,0.0,meteohub,2013-04-19 07:05:00,
2013-04-19 03:10:00,77.5,71.2,30.03,SE,145,6.0,18.0,81,0.00,,,0.00,0.0,meteohub,2013-04-19 07:10:00,
2013-04-19 03:15:00,77.2,71.6,30.03,SSE,158,0.0,18.0,83,0.00,,,0.00,0.0,meteohub,2013-04-19 07:15:00,
2013-04-19 03:20:00,76.3,71.4,30.03,SSE,157,9.0,16.0,85,0.00,,,0.00,0.0,meteohub,2013-04-19 07:20:00,
2013-04-19 03:25:00,75.9,71.4,30.03,SE,136,11.0,16.0,86,0.00,,,0.00,0.0,meteohub,2013-04-19 07:25:00,
2013-04-19 03:30:00,75.6,71.8,30.02,SE,143,17.0,104.0,88,0.01,,,0.01,0.0,meteohub,2013-04-19 07:30:00,
2013-04-19 03:35:00,75.0,71.6,30.02,SE,128,3.0,104.0,89,0.01,,,0.01,0.0,meteohub,2013-04-19 07:35:00,
2013-04-19 03:40:00,74.7,71.8,30.02,SE,124,0.0,104.0,91,0.01,,,0.01,0.0,meteohub,2013-04-19 07:40:00,
2013-04-19 03:45:00,74.5,72.0,30.02,ESE,123,0.0,30.0,92,0.01,,,0.01,0.0,meteohub,2013-04-19 07:45:00,
2013-04-19 03:50:00,74.1,72.0,30.02,ESE,121,0.0,5.0,93,0.01,,,0.01,0.0,meteohub,2013-04-19 07:50:00,
2013-04-19 03:55:00,73.9,71.8,30.02,ESE,121,0.0,0.0,93,0.01,,,0.01,0.0,meteohub,2013-04-19 07:55:00,
2013-04-19 04:00:00,73.9,72.1,30.02,ESE,121,0.0,0.0,94,0.01,,,0.01,0.0,meteohub,2013-04-19 08:00:00,
2013-04-19 04:06:00,73.9,72.1,30.02,ESE,123,0.0,0.0,94,0.01,,,0.01,0.0,meteohub,2013-04-19 08:06:00,
2013-04-19 04:11:00,73.9,72.5,30.02,ESE,123,0.0,0.0,95,0.01,,,0.01,0.0,meteohub,2013-04-19 08:11:00,
2013-04-19 04:16:00,73.9,72.5,30.02,ESE,121,0.0,0.0,95,0.01,,,0.01,0.0,meteohub,2013-04-19 08:16:00,
2013-04-19 04:21:00,73.9,72.5,30.02,ESE,121,0.0,0.0,95,0.01,,,0.01,0.0,meteohub,2013-04-19 08:21:00,
2013-04-19 04:26:00,73.9,72.5,30.02,ESE,121,0.0,0.0,95,0.01,,,0.01,0.0,meteohub,2013-04-19 08:26:00,
2013-04-19 04:31:00,73.9,72.5,30.02,SE,124,0.0,0.0,95,0.00,,,0.01,0.0,meteohub,2013-04-19 08:31:00,
2013-04-19 04:36:00,73.9,72.5,30.02,ESE,123,0.0,0.0,95,0.00,,,0.01,0.0,meteohub,2013-04-19 08:36:00,
2013-04-19 04:41:00,74.1,72.7,30.02,ESE,121,0.0,0.0,95,0.00,,,0.01,0.0,meteohub,2013-04-19 08:41:00,
2013-04-19 04:46:00,74.1,72.7,30.03,ESE,121,0.0,0.0,95,0.00,,,0.01,0.0,meteohub,2013-04-19 08:46:00,
2013-04-19 04:51:00,74.5,73.0,30.03,ESE,120,0.0,0.0,95,0.00,,,0.01,0.0,meteohub,2013-04-19 08:51:00,
2013-04-19 04:56:00,74.5,73.0,30.03,ESE,121,0.0,2.0,95,0.00,,,0.01,0.0,meteohub,2013-04-19 08:56:00,
2013-04-19 05:01:00,74.7,72.9,30.03,ESE,120,0.0,2.0,94,0.00,,,0.01,0.0,meteohub,2013-04-19 09:01:00,
2013-04-19 05:06:00,74.7,72.9,30.03,ESE,116,0.0,2.0,94,0.00,,,0.01,0.0,meteohub,2013-04-19 09:06:00,
2013-04-19 05:11:00,74.8,72.7,30.03,ESE,119,0.0,2.0,93,0.00,,,0.01,0.0,meteohub,2013-04-19 09:11:00,
2013-04-19 05:16:00,74.8,72.3,30.03,East,85,3.0,8.0,92,0.00,,,0.01,0.0,meteohub,2013-04-19 09:16:00,
2013-04-19 05:21:00,75.4,72.5,30.03,East,89,3.0,8.0,91,0.00,,,0.01,0.0,meteohub,2013-04-19 09:21:00,
2013-04-19 05:26:00,75.7,72.3,30.03,East,100,3.0,8.0,89,0.00,,,0.01,0.0,meteohub,2013-04-19 09:26:00,
2013-04-19 05:31:00,75.9,72.1,30.04,East,96,9.0,11.0,88,0.00,,,0.01,0.0,meteohub,2013-04-19 09:31:00,
2013-04-19 05:36:00,76.3,72.1,30.04,ENE,64,0.0,16.0,87,0.00,,,0.01,0.0,meteohub,2013-04-19 09:36:00,
2013-04-19 05:41:00,76.5,72.0,30.04,ESE,104,3.0,16.0,86,0.00,,,0.01,0.0,meteohub,2013-04-19 09:41:00,
2013-04-19 05:46:00,76.6,71.8,30.04,East,100,7.0,14.0,85,0.00,,,0.01,0.0,meteohub,2013-04-19 09:46:00,
2013-04-19 05:51:00,76.8,71.6,30.04,ESE,107,6.0,14.0,84,0.00,,,0.01,0.0,meteohub,2013-04-19 09:51:00,
2013-04-19 05:56:00,77.0,71.8,30.04,NE,52,0.0,14.0,84,0.00,,,0.01,0.0,meteohub,2013-04-19 09:56:00,
2013-04-19 06:02:00,77.0,71.8,30.05,East,92,3.0,13.0,84,0.00,,,0.01,0.0,meteohub,2013-04-19 10:02:00,
2013-04-19 06:07:00,77.0,71.8,30.05,East,85,4.0,13.0,84,0.00,,,0.01,0.0,meteohub,2013-04-19 10:07:00,
2013-04-19 06:12:00,76.8,71.6,30.05,East,86,3.0,12.0,84,0.00,,,0.01,9.0,meteohub,2013-04-19 10:12:00,
2013-04-19 06:17:00,76.8,71.6,30.05,ENE,71,3.0,12.0,84,0.00,,,0.01,14.0,meteohub,2013-04-19 10:17:00,
2013-04-19 06:22:00,76.8,71.2,30.05,East,82,0.0,11.0,83,0.00,,,0.01,21.0,meteohub,2013-04-19 10:22:00,
2013-04-19 06:27:00,77.0,71.4,30.05,East,83,5.0,11.0,83,0.00,,,0.01,28.0,meteohub,2013-04-19 10:27:00,
2013-04-19 06:32:00,77.2,71.6,30.06,ESE,102,7.0,13.0,83,0.00,,,0.01,32.0,meteohub,2013-04-19 10:32:00,
2013-04-19 06:37:00,77.2,71.6,30.06,ESE,102,13.0,13.0,83,0.00,,,0.01,35.0,meteohub,2013-04-19 10:37:00,
2013-04-19 06:42:00,77.2,71.6,30.06,ENE,78,3.0,14.0,83,0.00,,,0.01,35.0,meteohub,2013-04-19 10:42:00,
2013-04-19 06:47:00,77.2,71.6,30.06,ENE,75,9.0,14.0,83,0.00,,,0.01,37.0,meteohub,2013-04-19 10:47:00,
2013-04-19 06:52:00,77.4,71.8,30.06,ENE,75,6.0,14.0,83,0.00,,,0.01,40.0,meteohub,2013-04-19 10:52:00,
2013-04-19 06:57:00,77.5,72.0,30.06,ESE,103,7.0,12.0,83,0.00,,,0.01,148.0,meteohub,2013-04-19 10:57:00,
2013-04-19 07:02:00,77.7,71.8,30.07,East,96,7.0,12.0,82,0.00,,,0.01,185.0,meteohub,2013-04-19 11:02:00,
2013-04-19 07:07:00,78.1,72.1,30.07,East,92,8.0,12.0,82,0.00,,,0.01,97.0,meteohub,2013-04-19 11:07:00,
2013-04-19 07:12:00,78.1,71.8,30.07,ENE,78,10.0,17.0,81,0.00,,,0.01,91.0,meteohub,2013-04-19 11:12:00,
2013-04-19 07:17:00,78.4,72.1,30.07,East,82,6.0,17.0,81,0.00,,,0.01,151.0,meteohub,2013-04-19 11:17:00,
2013-04-19 07:22:00,78.4,72.1,30.07,SE,140,11.0,17.0,81,0.00,,,0.01,137.0,meteohub,2013-04-19 11:22:00,
2013-04-19 07:27:00,78.4,71.8,30.07,East,92,7.0,16.0,80,0.00,,,0.01,79.0,meteohub,2013-04-19 11:27:00,
2013-04-19 07:32:00,78.8,72.1,30.07,ESE,113,9.0,16.0,80,0.00,,,0.01,336.0,meteohub,2013-04-19 11:32:00,
2013-04-19 07:37:00,79.2,72.1,30.07,East,82,14.0,16.0,79,0.00,,,0.01,118.0,meteohub,2013-04-19 11:37:00,
2013-04-19 07:42:00,79.3,72.3,30.07,ENE,69,3.0,16.0,79,0.00,,,0.01,347.0,meteohub,2013-04-19 11:42:00,
2013-04-19 07:48:00,79.9,72.3,30.07,ESE,106,5.0,17.0,78,0.00,,,0.01,141.0,meteohub,2013-04-19 11:48:00,
2013-04-19 07:53:00,79.5,72.1,30.07,ESE,102,8.0,17.0,78,0.00,,,0.01,174.0,meteohub,2013-04-19 11:53:00,
2013-04-19 07:58:00,79.5,72.1,30.08,ENE,73,8.0,18.0,78,0.00,,,0.01,424.0,meteohub,2013-04-19 11:58:00,
2013-04-19 08:03:00,79.9,72.3,30.08,East,95,12.0,21.0,78,0.00,,,0.01,148.0,meteohub,2013-04-19 12:03:00,
2013-04-19 08:08:00,79.5,72.5,30.08,East,90,16.0,21.0,79,0.00,,,0.01,155.0,meteohub,2013-04-19 12:08:00,
2013-04-19 08:13:00,79.9,72.9,30.08,ESE,123,7.0,18.0,79,0.00,,,0.01,598.0,meteohub,2013-04-19 12:13:00,
2013-04-19 08:18:00,79.9,72.0,30.08,SE,127,10.0,18.0,77,0.00,,,0.01,211.0,meteohub,2013-04-19 12:18:00,
2013-04-19 08:23:00,79.9,72.3,30.08,ESE,104,6.0,19.0,78,0.00,,,0.01,547.0,meteohub,2013-04-19 12:23:00,
2013-04-19 08:28:00,79.9,71.6,30.09,ESE,106,8.0,19.0,76,0.00,,,0.01,190.0,meteohub,2013-04-19 12:28:00,
2013-04-19 08:33:00,80.2,72.0,30.09,ENE,71,11.0,21.0,76,0.00,,,0.01,695.0,meteohub,2013-04-19 12:33:00,
2013-04-19 08:38:00,80.8,72.1,30.09,NE,51,5.0,21.0,75,0.00,,,0.01,646.0,meteohub,2013-04-19 12:38:00,
2013-04-19 08:43:00,81.1,72.1,30.09,East,88,7.0,21.0,74,0.00,,,0.01,333.0,meteohub,2013-04-19 12:43:00,
2013-04-19 08:49:00,81.0,72.3,30.09,NE,34,10.0,20.0,75,0.00,,,0.01,238.0,meteohub,2013-04-19 12:49:00,
2013-04-19 08:53:00,81.0,72.7,30.09,East,92,10.0,21.0,76,0.00,,,0.01,304.0,meteohub,2013-04-19 12:53:00,
2013-04-19 08:59:00,81.1,72.1,30.09,ENE,69,12.0,21.0,74,0.00,,,0.01,213.0,meteohub,2013-04-19 12:59:00,
2013-04-19 09:04:00,81.0,72.3,30.09,ESE,112,10.0,21.0,75,0.00,,,0.01,225.0,meteohub,2013-04-19 13:04:00,
2013-04-19 09:09:00,80.8,72.1,30.09,East,83,5.0,18.0,75,0.00,,,0.01,195.0,meteohub,2013-04-19 13:09:00,
2013-04-19 09:14:00,80.2,72.0,30.10,ENE,75,19.0,19.0,76,0.00,,,0.01,260.0,meteohub,2013-04-19 13:14:00,
2013-04-19 09:19:00,80.8,72.9,30.10,NE,48,11.0,26.0,77,0.00,,,0.01,326.0,meteohub,2013-04-19 13:19:00,
2013-04-19 09:23:00,81.1,72.1,30.10,ENE,78,3.0,26.0,74,0.00,,,0.01,331.0,meteohub,2013-04-19 13:23:00,
2013-04-19 09:28:00,81.7,72.1,30.10,East,80,8.0,24.0,73,0.00,,,0.01,904.0,meteohub,2013-04-19 13:28:00,
2013-04-19 09:33:00,82.0,72.1,30.10,ESE,107,11.0,24.0,72,0.00,,,0.01,315.0,meteohub,2013-04-19 13:33:00,
2013-04-19 09:39:00,81.7,72.1,30.10,East,79,7.0,24.0,73,0.00,,,0.01,320.0,meteohub,2013-04-19 13:39:00,
2013-04-19 09:44:00,81.1,71.6,30.10,ENE,71,12.0,24.0,73,0.00,,,0.01,285.0,meteohub,2013-04-19 13:44:00,
2013-04-19 09:49:00,81.0,71.4,30.10,SE,131,10.0,19.0,73,0.00,,,0.01,238.0,meteohub,2013-04-19 13:49:00,
2013-04-19 09:54:00,81.1,71.6,30.10,ESE,103,11.0,25.0,73,0.00,,,0.01,424.0,meteohub,2013-04-19 13:54:00,
2013-04-19 09:59:00,81.3,71.4,30.10,East,79,12.0,25.0,72,0.00,,,0.01,283.0,meteohub,2013-04-19 13:59:00,
2013-04-19 10:04:00,81.9,71.6,30.10,ENE,75,11.0,22.0,71,0.00,,,0.01,296.0,meteohub,2013-04-19 14:04:00,
2013-04-19 10:09:00,82.2,71.1,30.10,East,97,16.0,22.0,69,0.00,,,0.01,296.0,meteohub,2013-04-19 14:09:00,
2013-04-19 10:14:00,82.4,71.2,30.10,East,85,18.0,22.0,69,0.00,,,0.01,289.0,meteohub,2013-04-19 14:14:00,
2013-04-19 10:19:00,82.2,71.4,30.10,NE,49,7.0,21.0,70,0.00,,,0.01,343.0,meteohub,2013-04-19 14:19:00,
2013-04-19 10:24:00,82.2,71.4,30.10,ENE,72,4.0,21.0,70,0.00,,,0.01,380.0,meteohub,2013-04-19 14:24:00,
2013-04-19 10:29:00,82.9,71.8,30.10,East,79,11.0,21.0,69,0.00,,,0.01,1105.0,meteohub,2013-04-19 14:29:00,
2013-04-19 10:34:00,83.5,72.3,30.10,ENE,69,5.0,24.0,69,0.00,,,0.01,1105.0,meteohub,2013-04-19 14:34:00,
2013-04-19 10:39:00,83.1,72.0,30.10,NE,49,16.0,24.0,69,0.00,,,0.01,301.0,meteohub,2013-04-19 14:39:00,
2013-04-19 10:44:00,82.2,71.4,30.10,ESE,104,10.0,24.0,70,0.00,,,0.01,267.0,meteohub,2013-04-19 14:44:00,
2013-04-19 10:49:00,82.0,71.2,30.10,East,80,5.0,21.0,70,0.00,,,0.01,412.0,meteohub,2013-04-19 14:49:00,
2013-04-19 10:54:00,82.4,71.2,30.10,ESE,114,5.0,21.0,69,0.00,,,0.01,468.0,meteohub,2013-04-19 14:54:00,
2013-04-19 10:59:00,82.4,71.6,30.10,East,99,12.0,21.0,70,0.00,,,0.01,326.0,meteohub,2013-04-19 14:59:00,
2013-04-19 11:04:00,81.9,72.0,30.10,East,96,6.0,19.0,72,0.00,,,0.01,273.0,meteohub,2013-04-19 15:04:00,
2013-04-19 11:09:00,81.7,71.4,30.10,East,82,10.0,19.0,71,0.00,,,0.01,336.0,meteohub,2013-04-19 15:09:00,
2013-04-19 11:14:00,81.7,71.4,30.10,East,100,13.0,19.0,71,0.00,,,0.01,310.0,meteohub,2013-04-19 15:14:00,
2013-04-19 11:19:00,81.3,69.8,30.10,East,95,15.0,24.0,68,0.00,,,0.01,514.0,meteohub,2013-04-19 15:19:00,
2013-04-19 11:24:00,81.9,70.7,30.10,ENE,69,14.0,24.0,69,0.00,,,0.01,348.0,meteohub,2013-04-19 15:24:00,
2013-04-19 11:29:00,82.0,71.2,30.09,East,96,10.0,24.0,70,0.00,,,0.01,396.0,meteohub,2013-04-19 15:29:00,
2013-04-19 11:34:00,82.4,71.2,30.09,East,86,18.0,22.0,69,0.00,,,0.01,389.0,meteohub,2013-04-19 15:34:00,
2013-04-19 11:39:00,82.6,71.4,30.09,ENE,75,7.0,22.0,69,0.00,,,0.01,512.0,meteohub,2013-04-19 15:39:00,
2013-04-19 11:44:00,82.8,71.6,30.09,East,95,7.0,22.0,69,0.00,,,0.01,292.0,meteohub,2013-04-19 15:44:00,
2013-04-19 11:49:00,82.6,71.4,30.09,ENE,78,12.0,19.0,69,0.00,,,0.01,352.0,meteohub,2013-04-19 15:49:00,
2013-04-19 11:55:00,82.6,71.4,30.09,ENE,64,9.0,18.0,69,0.00,,,0.01,262.0,meteohub,2013-04-19 15:55:00,
2013-04-19 12:00:00,82.4,71.2,30.09,NE,48,20.0,20.0,69,0.00,,,0.01,357.0,meteohub,2013-04-19 16:00:00,
2013-04-19 12:05:00,82.4,71.6,30.09,ENE,71,8.0,24.0,70,0.00,,,0.01,350.0,meteohub,2013-04-19 16:05:00,
2013-04-19 12:10:00,82.2,71.4,30.09,ENE,71,6.0,24.0,70,0.00,,,0.01,303.0,meteohub,2013-04-19 16:10:00,
2013-04-19 12:15:00,82.2,71.4,30.08,ENE,75,11.0,24.0,70,0.00,,,0.01,438.0,meteohub,2013-04-19 16:15:00,
2013-04-19 12:20:00,82.0,70.9,30.08,ENE,71,17.0,22.0,69,0.00,,,0.01,299.0,meteohub,2013-04-19 16:20:00,
2013-04-19 12:25:00,82.2,71.1,30.08,ENE,75,5.0,22.0,69,0.00,,,0.01,377.0,meteohub,2013-04-19 16:25:00,
2013-04-19 12:30:00,82.6,71.8,30.08,ENE,73,5.0,22.0,70,0.00,,,0.01,415.0,meteohub,2013-04-19 16:30:00,
2013-04-19 12:35:00,83.1,71.4,30.08,ESE,119,12.0,22.0,68,0.00,,,0.01,438.0,meteohub,2013-04-19 16:35:00,
2013-04-19 12:40:00,82.8,70.2,30.08,East,79,16.0,21.0,66,0.00,,,0.01,352.0,meteohub,2013-04-19 16:40:00,
2013-04-19 12:45:00,83.5,71.4,30.08,East,82,16.0,21.0,67,0.00,,,0.01,352.0,meteohub,2013-04-19 16:45:00,
2013-04-19 12:50:00,83.1,72.0,30.08,East,92,15.0,21.0,69,0.00,,,0.01,373.0,meteohub,2013-04-19 16:50:00,
2013-04-19 12:55:00,82.6,71.4,30.08,East,97,7.0,24.0,69,0.00,,,0.01,389.0,meteohub,2013-04-19 16:55:00,
2013-04-19 13:00:00,82.6,71.4,30.07,East,79,14.0,24.0,69,0.00,,,0.01,410.0,meteohub,2013-04-19 17:00:00,
2013-04-19 13:05:00,83.5,72.3,30.07,ENE,69,7.0,24.0,69,0.00,,,0.01,732.0,meteohub,2013-04-19 17:05:00,
2013-04-19 13:10:00,83.5,71.8,30.07,East,88,10.0,21.0,68,0.00,,,0.01,408.0,meteohub,2013-04-19 17:10:00,
2013-04-19 13:15:00,83.5,71.4,30.07,NE,52,9.0,21.0,67,0.00,,,0.01,489.0,meteohub,2013-04-19 17:15:00,
2013-04-19 13:20:00,83.8,72.1,30.07,ENE,66,3.0,18.0,68,0.00,,,0.01,651.0,meteohub,2013-04-19 17:20:00,
2013-04-19 13:25:00,83.7,71.6,30.07,East,83,6.0,21.0,67,0.00,,,0.01,477.0,meteohub,2013-04-19 17:25:00,
2013-04-19 13:30:00,83.7,71.6,30.06,NE,34,3.0,21.0,67,0.00,,,0.01,533.0,meteohub,2013-04-19 17:30:00,
2013-04-19 13:36:00,84.0,71.4,30.06,SE,144,13.0,21.0,66,0.00,,,0.01,517.0,meteohub,2013-04-19 17:36:00,
2013-04-19 13:41:00,84.0,71.4,30.06,East,90,11.0,21.0,66,0.00,,,0.01,1070.0,meteohub,2013-04-19 17:41:00,
2013-04-19 13:46:00,84.6,71.4,30.06,NE,56,11.0,21.0,65,0.00,,,0.01,1063.0,meteohub,2013-04-19 17:46:00,
2013-04-19 13:51:00,84.7,72.1,30.06,ENE,64,10.0,21.0,66,0.00,,,0.01,876.0,meteohub,2013-04-19 17:51:00,
2013-04-19 13:56:00,84.4,71.8,30.06,East,82,13.0,21.0,66,0.00,,,0.01,399.0,meteohub,2013-04-19 17:56:00,
2013-04-19 14:01:00,84.0,71.4,30.05,ESE,103,17.0,21.0,66,0.00,,,0.01,399.0,meteohub,2013-04-19 18:01:00,
2013-04-19 14:06:00,83.7,70.7,30.05,East,89,13.0,22.0,65,0.00,,,0.01,568.0,meteohub,2013-04-19 18:06:00,
2013-04-19 14:11:00,83.7,71.1,30.05,ESE,103,6.0,22.0,66,0.00,,,0.01,479.0,meteohub,2013-04-19 18:11:00,
2013-04-19 14:16:00,83.8,71.8,30.05,ENE,75,5.0,22.0,67,0.00,,,0.01,487.0,meteohub,2013-04-19 18:16:00,
2013-04-19 14:21:00,83.5,71.8,30.05,NE,52,10.0,22.0,68,0.00,,,0.01,382.0,meteohub,2013-04-19 18:21:00,
2013-04-19 14:26:00,82.8,71.6,30.05,ENE,62,8.0,20.0,69,0.00,,,0.01,283.0,meteohub,2013-04-19 18:26:00,
2013-04-19 14:31:00,82.6,71.4,30.05,ENE,76,12.0,21.0,69,0.00,,,0.01,433.0,meteohub,2013-04-19 18:31:00,
2013-04-19 14:36:00,82.6,70.9,30.05,East,97,12.0,21.0,68,0.00,,,0.01,422.0,meteohub,2013-04-19 18:36:00,
2013-04-19 14:41:00,82.6,71.4,30.05,ESE,103,11.0,21.0,69,0.00,,,0.01,422.0,meteohub,2013-04-19 18:41:00,
2013-04-19 14:46:00,82.4,72.0,30.05,NE,52,11.0,20.0,71,0.00,,,0.01,194.0,meteohub,2013-04-19 18:46:00,
2013-04-19 14:51:00,82.0,71.2,30.05,ENE,58,17.0,21.0,70,0.00,,,0.01,315.0,meteohub,2013-04-19 18:51:00,
2013-04-19 14:56:00,82.0,70.9,30.05,ESE,121,11.0,21.0,69,0.00,,,0.01,533.0,meteohub,2013-04-19 18:56:00,
2013-04-19 15:01:00,82.6,70.9,30.04,East,100,17.0,21.0,68,0.00,,,0.01,456.0,meteohub,2013-04-19 19:01:00,
2013-04-19 15:06:00,82.6,70.9,30.04,East,96,10.0,25.0,68,0.00,,,0.01,350.0,meteohub,2013-04-19 19:06:00,
2013-04-19 15:11:00,82.2,71.4,30.04,ESE,102,12.0,25.0,70,0.00,,,0.01,274.0,meteohub,2013-04-19 19:11:00,
2013-04-19 15:16:00,82.0,71.8,30.05,East,93,13.0,25.0,71,0.00,,,0.01,262.0,meteohub,2013-04-19 19:16:00,
2013-04-19 15:21:00,81.7,70.9,30.05,East,88,12.0,24.0,70,0.00,,,0.01,310.0,meteohub,2013-04-19 19:21:00,
2013-04-19 15:26:00,81.9,71.1,30.05,ENE,58,7.0,24.0,70,0.00,,,0.01,357.0,meteohub,2013-04-19 19:26:00,
2013-04-19 15:31:00,82.4,71.2,30.05,East,88,13.0,24.0,69,0.00,,,0.01,396.0,meteohub,2013-04-19 19:31:00,
2013-04-19 15:36:00,82.0,71.2,30.05,East,90,19.0,22.0,70,0.00,,,0.01,273.0,meteohub,2013-04-19 19:36:00,
2013-04-19 15:41:00,82.0,71.8,30.05,ESE,103,10.0,22.0,71,0.00,,,0.01,345.0,meteohub,2013-04-19 19:41:00,
2013-04-19 15:46:00,82.0,71.2,30.04,East,83,12.0,22.0,70,0.00,,,0.01,266.0,meteohub,2013-04-19 19:46:00,
2013-04-19 15:51:00,82.0,70.9,30.04,ENE,61,2.0,21.0,69,0.00,,,0.01,429.0,meteohub,2013-04-19 19:51:00,
2013-04-19 15:56:00,82.6,70.9,30.04,East,100,10.0,26.0,68,0.00,,,0.01,297.0,meteohub,2013-04-19 19:56:00,
2013-04-19 16:01:00,82.6,70.5,30.05,ESE,112,21.0,26.0,67,0.00,,,0.01,479.0,meteohub,2013-04-19 20:01:00,
2013-04-19 16:06:00,82.6,70.9,30.05,ENE,66,17.0,22.0,68,0.00,,,0.01,366.0,meteohub,2013-04-19 20:06:00,
2013-04-19 16:11:00,82.8,71.6,30.05,NE,56,6.0,22.0,69,0.00,,,0.01,602.0,meteohub,2013-04-19 20:11:00,
2013-04-19 16:16:00,82.9,71.8,30.05,ESE,103,11.0,22.0,69,0.00,,,0.01,306.0,meteohub,2013-04-19 20:16:00,
2013-04-19 16:21:00,82.6,71.8,30.05,East,89,6.0,22.0,70,0.00,,,0.01,607.0,meteohub,2013-04-19 20:21:00,
2013-04-19 16:27:00,82.4,72.0,30.05,ESE,113,10.0,25.0,71,0.00,,,0.01,174.0,meteohub,2013-04-19 20:27:00,
2013-04-19 16:32:00,82.2,72.3,30.05,NE,54,10.0,25.0,72,0.00,,,0.01,162.0,meteohub,2013-04-19 20:32:00,
2013-04-19 16:37:00,81.9,70.7,30.05,ENE,68,10.0,17.0,69,0.00,,,0.01,165.0,meteohub,2013-04-19 20:37:00,
2013-04-19 16:42:00,81.9,71.1,30.05,East,86,11.0,21.0,70,0.00,,,0.01,232.0,meteohub,2013-04-19 20:42:00,
2013-04-19 16:47:00,81.9,70.3,30.05,East,95,11.0,21.0,68,0.00,,,0.01,151.0,meteohub,2013-04-19 20:47:00,
2013-04-19 16:52:00,81.7,70.2,30.05,East,97,9.0,20.0,68,0.00,,,0.01,389.0,meteohub,2013-04-19 20:52:00,
2013-04-19 16:57:00,82.0,70.9,30.05,ESE,112,7.0,21.0,69,0.00,,,0.01,410.0,meteohub,2013-04-19 20:57:00,
2013-04-19 17:02:00,82.2,71.1,30.05,ESE,103,16.0,21.0,69,0.00,,,0.01,199.0,meteohub,2013-04-19 21:02:00,
2013-04-19 17:07:00,81.9,70.7,30.05,East,95,14.0,21.0,69,0.00,,,0.01,169.0,meteohub,2013-04-19 21:07:00,
2013-04-19 17:12:00,81.3,70.2,30.05,East,86,11.0,24.0,69,0.00,,,0.01,141.0,meteohub,2013-04-19 21:12:00,
2013-04-19 17:17:00,81.1,70.3,30.05,East,99,7.0,24.0,70,0.00,,,0.01,125.0,meteohub,2013-04-19 21:17:00,
2013-04-19 17:22:00,81.1,70.9,30.05,East,100,12.0,21.0,71,0.00,,,0.01,118.0,meteohub,2013-04-19 21:22:00,
2013-04-19 17:27:00,81.0,71.1,30.05,East,89,8.0,21.0,72,0.00,,,0.01,111.0,meteohub,2013-04-19 21:27:00,
2013-04-19 17:32:00,81.0,71.4,30.05,East,96,10.0,19.0,73,0.00,,,0.01,102.0,meteohub,2013-04-19 21:32:00,
2013-04-19 17:37:00,80.8,71.8,30.05,NE,55,6.0,20.0,74,0.00,,,0.01,81.0,meteohub,2013-04-19 21:37:00,
2013-04-19 17:42:00,81.0,72.3,30.05,East,88,14.0,20.0,75,0.00,,,0.01,100.0,meteohub,2013-04-19 21:42:00,
2013-04-19 17:47:00,80.4,71.8,30.05,East,100,7.0,19.0,75,0.00,,,0.01,97.0,meteohub,2013-04-19 21:47:00,
2013-04-19 17:52:00,80.2,72.0,30.05,East,96,11.0,19.0,76,0.00,,,0.01,81.0,meteohub,2013-04-19 21:52:00,
2013-04-19 17:57:00,80.1,71.8,30.05,ENE,61,10.0,19.0,76,0.00,,,0.01,81.0,meteohub,2013-04-19 21:57:00,
2013-04-19 18:02:00,80.1,71.8,30.05,East,96,13.0,19.0,76,0.00,,,0.01,67.0,meteohub,2013-04-19 22:02:00,
2013-04-19 18:07:00,80.1,71.8,30.05,ENE,64,10.0,19.0,76,0.00,,,0.01,67.0,meteohub,2013-04-19 22:07:00,
2013-04-19 18:12:00,79.9,71.6,30.06,ENE,71,13.0,19.0,76,0.00,,,0.01,62.0,meteohub,2013-04-19 22:12:00,
2013-04-19 18:18:00,79.9,71.6,30.06,East,97,7.0,21.0,76,0.00,,,0.01,49.0,meteohub,2013-04-19 22:18:00,
2013-04-19 18:23:00,79.9,71.6,30.06,East,88,15.0,21.0,76,0.00,,,0.01,44.0,meteohub,2013-04-19 22:23:00,
2013-04-19 18:28:00,79.9,71.6,30.06,ENE,72,5.0,20.0,76,0.00,,,0.01,30.0,meteohub,2013-04-19 22:28:00,
2013-04-19 18:33:00,79.9,71.2,30.06,East,96,6.0,20.0,75,0.00,,,0.01,21.0,meteohub,2013-04-19 22:33:00,
2013-04-19 18:38:00,79.9,71.2,30.06,East,90,10.0,19.0,75,0.00,,,0.01,12.0,meteohub,2013-04-19 22:38:00,
2013-04-19 18:43:00,79.5,70.9,30.06,SE,141,9.0,19.0,75,0.00,,,0.01,5.0,meteohub,2013-04-19 22:43:00,
2013-04-19 18:48:00,79.5,70.9,30.06,ENE,75,3.0,19.0,75,0.00,,,0.01,0.0,meteohub,2013-04-19 22:48:00,
2013-04-19 18:53:00,79.5,71.2,30.06,NE,47,2.0,16.0,76,0.00,,,0.01,0.0,meteohub,2013-04-19 22:53:00,
2013-04-19 18:58:00,79.3,71.1,30.07,ESE,109,6.0,17.0,76,0.00,,,0.01,0.0,meteohub,2013-04-19 22:58:00,
2013-04-19 19:03:00,79.3,71.1,30.07,East,92,5.0,17.0,76,0.00,,,0.01,0.0,meteohub,2013-04-19 23:03:00,
2013-04-19 19:08:00,79.3,71.4,30.07,East,86,0.0,17.0,77,0.00,,,0.01,0.0,meteohub,2013-04-19 23:08:00,
2013-04-19 19:13:00,79.2,71.2,30.08,ENE,62,12.0,14.0,77,0.00,,,0.01,0.0,meteohub,2013-04-19 23:13:00,
2013-04-19 19:18:00,79.2,71.2,30.08,East,97,3.0,17.0,77,0.00,,,0.01,0.0,meteohub,2013-04-19 23:18:00,
2013-04-19 19:23:00,79.2,71.2,30.08,ENE,58,6.0,17.0,77,0.00,,,0.01,0.0,meteohub,2013-04-19 23:23:00,
2013-04-19 19:28:00,79.2,71.2,30.08,ENE,76,4.0,18.0,77,0.00,,,0.01,0.0,meteohub,2013-04-19 23:28:00,
2013-04-19 19:33:00,79.2,71.2,30.08,East,85,12.0,18.0,77,0.00,,,0.01,0.0,meteohub,2013-04-19 23:33:00,
2013-04-19 19:38:00,79.0,71.1,30.08,East,88,10.0,18.0,77,0.00,,,0.01,0.0,meteohub,2013-04-19 23:38:00,
2013-04-19 19:43:00,79.0,71.1,30.08,ESE,102,6.0,14.0,77,0.00,,,0.01,0.0,meteohub,2013-04-19 23:43:00,
2013-04-19 19:48:00,78.8,71.4,30.08,NE,52,7.0,14.0,78,0.00,,,0.01,0.0,meteohub,2013-04-19 23:48:00,
2013-04-19 19:53:00,78.8,71.1,30.08,SE,134,2.0,14.0,77,0.00,,,0.01,0.0,meteohub,2013-04-19 23:53:00,
2013-04-19 19:58:00,78.8,71.1,30.09,East,86,5.0,18.0,77,0.00,,,0.01,0.0,meteohub,2013-04-19 23:58:00,
2013-04-19 20:03:00,78.8,71.4,30.09,East,82,1.0,18.0,78,0.00,,,0.01,0.0,meteohub,2013-04-20 00:03:00,
2013-04-19 20:09:00,78.8,71.1,30.09,East,88,11.0,16.0,77,0.00,,,0.01,0.0,meteohub,2013-04-20 00:09:00,
2013-04-19 20:14:00,78.8,71.1,30.09,ENE,58,7.0,16.0,77,0.00,,,0.01,0.0,meteohub,2013-04-20 00:14:00,
2013-04-19 20:19:00,78.8,71.1,30.09,East,96,9.0,18.0,77,0.00,,,0.01,0.0,meteohub,2013-04-20 00:19:00,
2013-04-19 20:24:00,78.8,71.1,30.09,ESE,114,7.0,18.0,77,0.00,,,0.01,0.0,meteohub,2013-04-20 00:24:00,
2013-04-19 20:29:00,78.8,71.4,30.09,East,90,6.0,18.0,78,0.00,,,0.01,0.0,meteohub,2013-04-20 00:29:00,
2013-04-19 20:34:00,78.8,71.4,30.09,East,86,5.0,14.0,78,0.00,,,0.01,0.0,meteohub,2013-04-20 00:34:00,
2013-04-19 20:39:00,78.8,71.4,30.09,ESE,103,7.0,18.0,78,0.00,,,0.01,0.0,meteohub,2013-04-20 00:39:00,
2013-04-19 20:44:00,78.8,71.4,30.10,ESE,123,3.0,18.0,78,0.00,,,0.01,0.0,meteohub,2013-04-20 00:44:00,
2013-04-19 20:49:00,78.8,71.8,30.10,East,99,5.0,15.0,79,0.00,,,0.01,0.0,meteohub,2013-04-20 00:49:00,
2013-04-19 20:54:00,78.8,71.8,30.10,East,82,2.0,15.0,79,0.00,,,0.01,0.0,meteohub,2013-04-20 00:54:00,
2013-04-19 20:59:00,78.8,71.8,30.10,ESE,113,8.0,14.0,79,0.00,,,0.01,0.0,meteohub,2013-04-20 00:59:00,
2013-04-19 21:05:00,78.6,71.6,30.10,East,82,8.0,12.0,79,0.00,,,0.01,0.0,meteohub,2013-04-20 01:05:00,
2013-04-19 21:10:00,78.6,71.6,30.10,ENE,75,11.0,16.0,79,0.00,,,0.01,0.0,meteohub,2013-04-20 01:10:00,
2013-04-19 21:15:00,78.6,71.6,30.11,ENE,65,8.0,16.0,79,0.00,,,0.01,0.0,meteohub,2013-04-20 01:15:00,
2013-04-19 21:20:00,78.6,71.6,30.11,ENE,72,5.0,16.0,79,0.00,,,0.01,0.0,meteohub,2013-04-20 01:20:00,
2013-04-19 21:25:00,78.6,71.6,30.11,ESE,106,5.0,14.0,79,0.00,,,0.01,0.0,meteohub,2013-04-20 01:25:00,
2013-04-19 21:30:00,78.6,71.6,30.11,East,88,0.0,14.0,79,0.00,,,0.01,0.0,meteohub,2013-04-20 01:30:00,
2013-04-19 21:35:00,78.6,72.0,30.11,East,100,0.0,14.0,80,0.00,,,0.01,0.0,meteohub,2013-04-20 01:35:00,
2013-04-19 21:40:00,78.6,72.0,30.11,East,92,3.0,14.0,80,0.00,,,0.01,0.0,meteohub,2013-04-20 01:40:00,
2013-04-19 21:45:00,78.4,71.4,30.11,ESE,106,11.0,13.0,79,0.00,,,0.01,0.0,meteohub,2013-04-20 01:45:00,
2013-04-19 21:50:00,78.1,71.1,30.11,SE,128,7.0,18.0,79,0.00,,,0.01,0.0,meteohub,2013-04-20 01:50:00,
2013-04-19 21:55:00,78.1,71.1,30.11,East,100,6.0,18.0,79,0.00,,,0.01,0.0,meteohub,2013-04-20 01:55:00,
2013-04-19 22:00:00,77.9,70.9,30.11,ENE,68,10.0,18.0,79,0.00,,,0.01,0.0,meteohub,2013-04-20 02:00:00,
2013-04-19 22:05:00,78.1,71.8,30.11,ENE,66,11.0,17.0,81,0.00,,,0.01,0.0,meteohub,2013-04-20 02:05:00,
2013-04-19 22:10:00,77.7,71.4,30.11,ENE,76,5.0,14.0,81,0.00,,,0.01,0.0,meteohub,2013-04-20 02:10:00,
2013-04-19 22:15:00,77.5,71.6,30.11,East,79,0.0,14.0,82,0.00,,,0.01,0.0,meteohub,2013-04-20 02:15:00,
2013-04-19 22:20:00,77.4,71.8,30.11,East,79,3.0,11.0,83,0.00,,,0.01,0.0,meteohub,2013-04-20 02:20:00,
2013-04-19 22:25:00,77.4,71.8,30.11,East,96,8.0,10.0,83,0.00,,,0.01,0.0,meteohub,2013-04-20 02:25:00,
2013-04-19 22:30:00,77.5,72.3,30.12,ESE,123,8.0,13.0,84,0.00,,,0.01,0.0,meteohub,2013-04-20 02:30:00,
2013-04-19 22:35:00,77.5,72.3,30.12,SE,127,2.0,13.0,84,0.00,,,0.01,0.0,meteohub,2013-04-20 02:35:00,
2013-04-19 22:40:00,77.4,72.5,30.12,SE,130,5.0,13.0,85,0.00,,,0.01,0.0,meteohub,2013-04-20 02:40:00,
2013-04-19 22:46:00,76.8,72.3,30.12,East,100,10.0,12.0,86,0.00,,,0.01,0.0,meteohub,2013-04-20 02:46:00,
2013-04-19 22:51:00,76.5,72.3,30.12,ESE,119,0.0,13.0,87,0.00,,,0.01,0.0,meteohub,2013-04-20 02:51:00,
2013-04-19 22:56:00,76.3,72.5,30.12,SE,140,6.0,13.0,88,0.00,,,0.01,0.0,meteohub,2013-04-20 02:56:00,
2013-04-19 23:01:00,76.3,72.9,30.12,SE,145,0.0,13.0,89,0.00,,,0.01,0.0,meteohub,2013-04-20 03:01:00,
2013-04-19 23:06:00,76.1,72.7,30.12,SE,140,0.0,8.0,89,0.00,,,0.01,0.0,meteohub,2013-04-20 03:06:00,
2013-04-19 23:11:00,75.9,72.9,30.12,ESE,117,0.0,8.0,90,0.00,,,0.01,0.0,meteohub,2013-04-20 03:11:00,
2013-04-19 23:16:00,75.9,72.9,30.12,SE,137,0.0,8.0,90,0.00,,,0.01,0.0,meteohub,2013-04-20 03:16:00,
2013-04-19 23:21:00,75.9,72.9,30.12,SSE,155,0.0,8.0,90,0.00,,,0.01,0.0,meteohub,2013-04-20 03:21:00,
2013-04-19 23:26:00,75.9,73.0,30.12,ESE,120,0.0,10.0,91,0.00,,,0.01,0.0,meteohub,2013-04-20 03:26:00,
2013-04-19 23:31:00,75.7,72.9,30.11,ESE,121,0.0,10.0,91,0.00,,,0.01,0.0,meteohub,2013-04-20 03:31:00,
2013-04-19 23:36:00,75.7,72.9,30.11,ESE,121,0.0,3.0,91,0.00,,,0.01,0.0,meteohub,2013-04-20 03:36:00,
2013-04-19 23:41:00,75.6,72.7,30.11,SE,128,2.0,0.0,91,0.00,,,0.01,0.0,meteohub,2013-04-20 03:41:00,
2013-04-19 23:46:00,75.6,72.7,30.10,SE,128,0.0,6.0,91,0.00,,,0.01,0.0,meteohub,2013-04-20 03:46:00,
2013-04-19 23:51:00,75.6,72.7,30.10,SE,128,0.0,6.0,91,0.00,,,0.01,0.0,meteohub,2013-04-20 03:51:00,
2013-04-19 23:56:00,75.6,72.7,30.10,SE,128,0.0,6.0,91,0.00,,,0.01,0.0,meteohub,2013-04-20 03:56:00,